Погода в Алейском

Россия / Алтайский край     52°28′23″N   82°43′33″E
темп.,
°C
ветер,
м/с
пор.,
м/с
влажн.,
%
обл.,
%
осадки,
мм/ч
давл.,
гПа
погр.,
м
26 января, ср
ср2601:00−19ююз4993100 0.0 1034186
04:00−18ююз41190100 0.0 1032250
07:00−16ю31389100 0.0 1031335
10:00−14ююз41590100 0.1 1029504
13:00−11юз71594100 1.6 1028594
16:00−11юз61394100 1.9 1028588
19:00−10юз61294100 3.1 1029603
22:00−10юз51193100 0.4 1030475
27 января, чт
чт2701:00−11юз499599 0.4 1032242
04:00−14зюз489691 0.1 1034184
07:00−15юз389699 0.3 1036195
10:00−16юз389781 0.1 1038163
13:00−13юз479390 0.1 1038271
16:00−13юз369542 0.0 1038253
19:00−20ююз2210055 0.0 10409
22:00−23ю1110091 0.0 10409
28 января, пт
пт2801:00−24ю11100100 0.0 10399
04:00−25ююв01100100 0.0 10399
07:00−25всв11100100 0.0 10389
10:00−25всв22100100 0.0 103813
13:00−15всв229442 0.0 1036101
16:00−13всв23945 0.0 1035107
19:00−21всв2210066 0.0 103511
22:00−23св22100100 0.0 103514
29 января, сб
сб2901:00−24св22100100 0.1 103416
04:00−26св22100100 0.0 103415
07:00−25св23100100 0.0 103431
10:00−25всв22100100 0.0 103533
13:00−16всв359673 0.1 1033140
16:00−14всв25945 0.0 1033159
19:00−21всв2210071 0.0 103410
22:00−23всв22100100 0.0 10349
30 января, вс
вс3001:00−25всв2210099 0.0 103310
04:00−26вюв1110048 0.0 10339
07:00−25всв3210044 0.0 103229
10:00−26вюв1110017 0.0 103210
13:00−14вюв23835 0.0 103088
16:00−11вюв238527 0.0 102980
19:00−11в3583100 0.0 102981
22:00−12вюв228898 0.0 102923